THOR BURNER 2 R/B, 2877

Orbit data source: Space-Track

THOR BURNER 2 R/B, 2877 is space debris in LEO originally from a launch on Thu, 29 Jun 1967 UTC launched from the Air Force Western Test Range (AFWTR). Debris objects in space refer to the collection of defunct objects orbiting the Earth. Examples of debris include non-operational satellites, rocket bodies, and fragments generated from explosions, collisions, or faulty payload assembly.

Loading next visibility...
Identifier
2877, 1967-065C
Orbit
LEO
Country
Flag of USUS
Related business
Manufacturer
BOKT/THKE
Mission
Spacecraft
Bus & Motor
STAR 13, STAR 13
Mass
58 kg wet, 25 kg dry
Launch date (UTC)
1967-06-29 (59 years ago)
Launch vehicle
Unknown
Launch site
Air Force Western Test Range (AFWTR)
Object type
Payload
Rocket body
Debris
Shape & HBR
Unknown
Radar Cross Section
Medium (>0.1 m² and <1 m²)

Expand to show TLE details & history
Last TLE update: 9 hours ago

TLE from 9 hours ago
0 THOR BURNER 2 R/B
1 02877U 67065C   26119.54402896  .00000025  00000-0  14726-1 0  9993
2 02877  89.9761 313.6499 0065111 140.7083 219.8502  8.36608643796911
Epoch: 2026-04-29T13:03Z
TLE epoch observation values (Epoch: 2026-04-29T13:03:24.102Z)
Latitude
-0.00005°
Longitude
-99.70399°
Altitude
3,925.345 km
Speed
6.205 km/s
True Right ascension
20h 54m 35s
True Declination
0° 00' 00"
Sunlit
Object was in daylight at epoch
Visualization orbit readout
Latitude
Unknown
Longitude
Unknown
Altitude
Unknown
Speed
Unknown
Apparent Right ascension
Unknown
Apparent Declination
Unknown
Sunlit
N/A
Visualization observer readout
Local Sidereal Time
05:30:24
Azimuth
Unknown
Elevation
Unknown
Doppler factor
Unknown
Orbital elements
Apogee altitude
3,936.361 km
Perigee altitude
3,802.912 km
Semi-major axis
10,247.773 km
Eccentricity
0.00651
Inclination
89.9761°
RAAN
313.6499°
Arg. of periapsis
140.7083°
True anomaly
219.37508°
Mean anomaly
219.8502°
Eccentric anomaly
219.61234°
Mean motion
2.09218 °/min
Orbital period
172.07 mins
BSTAR
0.014726
Loading maneuver chart data...
Computing Atmospheric mass density...
Loading historical data...
Loading historical data...
Loading historical data...
Loading historical data...
Loading historical data...
Loading historical data...
Loading historical data...
Other satellites on launch #65 in the year 1967 (1967-06-29 UTC)

Documentation

Showing up to 5 results
|